Hourly Data Report for June 25, 2021

TORONTO CITY
ONTARIO
Current Station Operator: ECCC - MSC

43°40'00.000" N
79°24'00.000" W
112.50 m
6158355
71508
XTO

Download Data

Hourly Data (June 2021)
Hourly Data Report for June 25, 2021
TIME
LST
Temp Definition
°C
Dew Point Definition
°C
Rel Hum Definition
%
Precip. Amount Definition
mm

Wind Dir Definition
10's deg

Wind Spd Definition
km/h
Visibility Definition
km
Stn Press Definition
kPa
Hmdx Definition


Wind Chill Definition


Weather Definition


00:00 21.5 12.2 55 0.0       100.57     LegendNANA
01:00 21.3 12.5 57 0.0       100.57     LegendNANA
02:00 21.2 12.5 58 0.0       100.54     LegendNANA
03:00 21.3 11.8 54 0.0       100.64     LegendNANA
04:00 21.0 12.3 57 0.0       100.59     LegendNANA
05:00 20.8 12.5 59 0.0       100.61     LegendNANA
06:00 20.7 12.8 61 0.0       100.65     LegendNANA
07:00 20.6 13.3 63 0.0       100.62     LegendNANA
08:00 20.6 13.6 64 0.0       100.62     LegendNANA
09:00 21.1 14.3 65 0.0       100.62 25   LegendNANA
10:00 22.6 14.8 61 0.0       100.58 26   LegendNANA
11:00 23.4 15.0 59 0.0       100.56 27   LegendNANA
12:00 23.8 15.3 59 0.0       100.50 28   LegendNANA
13:00 23.7 16.0 62 0.0       100.48 28   LegendNANA
14:00 22.0 16.9 73 0.0       100.45 27   LegendNANA
15:00 21.2 18.7 86 0.6       100.43 28   LegendNANA
16:00 20.6 19.3 92 1.7       100.45 28   LegendNANA
17:00 20.6 19.4 93 1.8       100.40 28   LegendNANA
18:00 19.3 18.0 93 0.9       100.35     LegendNANA
19:00 18.8 17.5 92 0.2       100.25     LegendNANA
20:00 19.2 17.7 91 0.0       100.18     LegendNANA
21:00 19.2 17.5 90 0.1       100.20     LegendNANA
22:00 18.7 17.6 93 1.1       100.22     LegendNANA
23:00 18.7 17.8 95 1.2       100.14     LegendNANA

Notes on Data Quality.

Legend

  • E = Estimated
  • M = Missing
  • NA = Not Available*
  • [empty] = Indicates an unobserved value
Date modified: